This is the latest recevied weather packets stored in our database for station/object KK7MLS-13. If no packets are shown the sender has not sent any weather packets the latest 10 day(s).
| Time | Temp. | Humidity | Pressure | Rain* | Wind** | Luminosity | Snow |
|---|---|---|---|---|---|---|---|
| 1777834215 | 29.44° C | 38% | 1011.2 hPa | 0 mm | - | 699 W/m² | - |
| 1777833912 | 28.89° C | 41% | 1011.2 hPa | 0 mm | - | 694 W/m² | - |
| 1777833608 | 28.33° C | 41% | 1011.5 hPa | 0 mm | - | 687 W/m² | - |
| 1777833305 | 28.33° C | 40% | 1011.3 hPa | 0 mm | - | 683 W/m² | - |
| 1777833001 | 28.89° C | 40% | 1011.6 hPa | 0 mm | - | 676 W/m² | - |
| 1777832700 | 28.33° C | 40% | 1011.5 hPa | 0 mm | - | 669 W/m² | - |
| 1777832398 | 27.78° C | 40% | 1011.6 hPa | 0 mm | - | 662 W/m² | - |
| 1777832095 | 27.22° C | 41% | 1011.6 hPa | 0 mm | - | 654 W/m² | - |
| 1777831790 | 26.67° C | 43% | 1011.6 hPa | 0 mm | - | 647 W/m² | - |
| 1777831489 | 26.11° C | 44% | 1011.8 hPa | 0 mm | - | 638 W/m² | - |
| 1777831185 | 26.67° C | 41% | 1011.9 hPa | 0 mm | - | 631 W/m² | - |
| 1777830884 | 26.67° C | 45% | 1011.9 hPa | 0 mm | - | 619 W/m² | - |
| 1777830579 | 26.11° C | 44% | 1011.8 hPa | 0 mm | - | 611 W/m² | - |
| 1777830278 | 25.56° C | 48% | 1011.9 hPa | 0 mm | - | 601 W/m² | - |
| 1777829978 | 25° C | 45% | 1012 hPa | 0 mm | - | 591 W/m² | - |
| 1777829674 | 25.56° C | 47% | 1012 hPa | 0 mm | - | 584 W/m² | - |
| 1777829371 | 25° C | 48% | 1012 hPa | 0 mm | - | 574 W/m² | - |
| 1777829068 | 23.89° C | 49% | 1012 hPa | 0 mm | - | 563 W/m² | - |
| 1777828764 | 23.89° C | 50% | 1012 hPa | 0 mm | - | 552 W/m² | - |
| 1777828461 | 23.33° C | 51% | 1011.9 hPa | 0 mm | - | 542 W/m² | - |
| 1777828159 | 23.33° C | 51% | 1012 hPa | 0 mm | - | 527 W/m² | - |
| 1777827855 | 23.33° C | 53% | 1012.1 hPa | 0 mm | - | 511 W/m² | - |
| 1777827552 | 22.78° C | 53% | 1012.1 hPa | 0 mm | - | 505 W/m² | - |
| 1777827250 | 22.22° C | 54% | 1012.1 hPa | 0 mm | - | 492 W/m² | - |
| 1777826945 | 22.22° C | 55% | 1012.1 hPa | 0 mm | - | 480 W/m² | - |
* Rain latest hour (hover to see other rain measurements)
** Current wind speed in m/s (hover to see current wind gust speed)